GW4289 Weather Reports


Display with metric or nautical units.
time (UTC)temp
F
wind
direction
speed
MPH
gust
MPH
rain 1hr
in
rain 24hr
in
rain mn
in
humidity
%
barometer
mb
20260504151019 66 49 6.0 14.0 0.00 0.00 0.00 36 1014.4
20260504150518 66 48 3.0 8.0 0.00 0.00 0.00 36 1014.4
20260504141019 61 48 4.0 7.0 0.00 0.00 0.00 41 1014.3
20260504140518 61 48 2.0 6.0 0.00 0.00 0.00 42 1014.3
20260504130519 55 48 2.0 6.0 0.00 0.00 0.00 53 1014.9
20260504110518 49 48 2.0 4.0 0.00 0.00 0.00 61 1015.2
20260504100518 49 48 0.0 2.0 0.00 0.00 0.00 60 1015.2
20260504081537 51 48 1.0 4.0 0.00 0.00 0.00 53 1015.4
20260504081022 51 48 1.0 4.0 0.00 0.00 0.00 53 1015.5
20260504080517 51 48 1.0 4.0 0.00 0.00 0.00 53 1015.3
20260504050521 51 0 0.0 1.0 0.00 0.00 0.00 48 1016.0
20260504045518 51 48 0.0 1.0 0.00 0.00 0.00 48 1016.0
20260504045018 51 0 0.0 1.0 0.00 0.00 0.00 49 1016.0
20260504044539 51 48 0.0 1.0 0.00 0.00 0.00 48 1016.1
20260504044018 51 48 0.0 1.0 0.00 0.00 0.00 48 1016.1
20260504043518 51 48 0.0 1.0 0.00 0.00 0.00 49 1016.0
20260504043037 50 48 0.0 1.0 0.00 0.00 0.00 48 1016.1
20260504042518 50 0 0.0 1.0 0.00 0.00 0.00 47 1015.9
20260504042019 51 0 0.0 1.0 0.00 0.00 0.00 46 1015.8
20260504041535 51 48 0.0 1.0 0.00 0.00 0.00 45 1015.9
20260504041019 52 48 0.0 2.0 0.00 0.00 0.00 44 1015.9
20260504040519 52 48 0.0 2.0 0.00 0.00 0.00 44 1015.8
20260504040100 52 48 1.0 2.0 0.00 0.00 0.00 43 1015.9
20260504035520 52 48 0.0 3.0 0.00 0.00 0.00 43 1015.9
20260504035019 52 48 1.0 3.0 0.00 0.00 0.00 43 1015.9
20260504034538 52 48 1.0 2.0 0.00 0.00 0.00 43 1016.0
20260504034018 52 48 1.0 3.0 0.00 0.00 0.00 42 1016.0
20260504033518 53 48 1.0 3.0 0.00 0.00 0.00 42 1016.1
20260504033038 53 48 1.0 3.0 0.00 0.00 0.00 42 1016.0
20260504032522 53 48 2.0 4.0 0.00 0.00 0.00 41 1015.9
20260504032019 53 48 1.0 4.0 0.00 0.00 0.00 41 1015.9
20260504031537 53 48 1.0 3.0 0.00 0.00 0.00 41 1015.7
20260504031015 53 48 1.0 3.0 0.00 0.00 0.00 40 1015.8
20260504030520 53 48 1.0 2.0 0.00 0.00 0.00 40 1015.8
20260504030036 53 48 1.0 2.0 0.00 0.00 0.00 40 1015.8
20260504025523 53 48 0.0 3.0 0.00 0.00 0.00 40 1015.8
20260504025019 53 48 1.0 4.0 0.00 0.00 0.00 39 1015.7
20260504024542 53 49 1.0 4.0 0.00 0.00 0.00 39 1015.6
20260504024023 53 48 2.0 4.0 0.00 0.00 0.00 39 1015.6
20260504023520 53 48 2.0 4.0 0.00 0.00 0.00 39 1015.6
20260504023037 53 48 2.0 3.0 0.00 0.00 0.00 40 1015.6
20260504022518 52 49 1.0 2.0 0.00 0.00 0.00 42 1015.6
20260504022020 52 48 0.0 2.0 0.00 0.00 0.00 43 1015.6
20260504021537 52 0 0.0 0.0 0.00 0.00 0.00 45 1015.6
20260504021021 52 0 0.0 1.0 0.00 0.00 0.00 44 1015.5
20260504020518 53 0 0.0 1.0 0.00 0.00 0.00 43 1015.5
20260504020037 52 48 0.0 1.0 0.00 0.00 0.00 44 1015.4
20260504015515 52 0 0.0 1.0 0.00 0.00 0.00 45 1015.4
20260504015018 51 0 0.0 0.0 0.00 0.00 0.00 47 1015.4
20260504014542 51 0 0.0 0.0 0.00 0.00 0.00 48 1015.3
20260504014019 51 0 0.0 0.0 0.00 0.00 0.00 47 1015.3
20260504013519 51 0 0.0 0.0 0.00 0.00 0.00 49 1015.2
20260504013036 52 0 0.0 1.0 0.00 0.00 0.00 48 1015.2
20260504012519 52 0 0.0 1.0 0.00 0.00 0.00 47 1015.2
20260504012019 52 48 0.0 1.0 0.00 0.00 0.00 47 1015.1
20260504011534 53 0 0.0 0.0 0.00 0.00 0.00 45 1015.1
20260504011018 53 0 0.0 0.0 0.00 0.00 0.00 43 1015.1
20260504010518 54 0 0.0 0.0 0.00 0.00 0.00 42 1015.1
20260504010037 55 0 0.0 0.0 0.00 0.00 0.00 40 1015.1
20260504005520 55 0 0.0 0.0 0.00 0.00 0.00 39 1015.1
20260504005019 56 0 0.0 0.0 0.00 0.00 0.00 36 1015.1
20260504004544 57 0 0.0 1.0 0.00 0.00 0.00 36 1015.0
20260504004019 58 0 0.0 1.0 0.00 0.00 0.00 34 1014.9
20260504003519 58 0 0.0 1.0 0.00 0.00 0.00 33 1015.0
20260504003036 59 48 0.0 1.0 0.00 0.00 0.00 32 1014.8
20260504002518 59 0 0.0 1.0 0.00 0.00 0.00 31 1014.8
20260504002015 59 0 0.0 1.0 0.00 0.00 0.00 31 1014.8
20260504001539 60 0 0.0 1.0 0.00 0.00 0.00 30 1014.9
20260504001018 60 0 0.0 1.0 0.00 0.00 0.00 30 1014.8
20260504000519 60 0 0.0 2.0 0.00 0.00 0.00 29 1014.7
20260504000037 61 0 0.0 3.0 0.00 0.00 0.00 29 1014.7
20260503235519 61 48 0.0 3.0 0.00 0.00 0.00 28 1014.6
20260503235021 62 48 0.0 4.0 0.00 0.00 0.00 28 1014.6
20260503234536 62 48 0.0 4.0 0.00 0.00 0.00 28 1014.5
20260503234017 62 48 1.0 7.0 0.00 0.00 0.00 28 1014.5
20260503233516 62 48 2.0 7.0 0.00 0.00 0.00 28 1014.5
20260503233040 62 48 2.0 6.0 0.00 0.00 0.00 27 1014.5
20260503232517 62 48 2.0 5.0 0.00 0.00 0.00 27 1014.4
20260503232017 62 48 2.0 6.0 0.00 0.00 0.00 27 1014.4
20260503231538 63 48 2.0 6.0 0.00 0.00 0.00 26 1014.4
20260503231017 63 48 2.0 5.0 0.00 0.00 0.00 26 1014.2
20260503230520 63 48 1.0 7.0 0.00 0.00 0.00 26 1014.2
20260503230036 63 48 2.0 10.0 0.00 0.00 0.00 26 1014.2
20260503225516 63 48 4.0 10.0 0.00 0.00 0.00 26 1014.3
20260503225019 63 48 2.0 8.0 0.00 0.00 0.00 26 1014.4
20260503224537 63 48 3.0 8.0 0.00 0.00 0.00 26 1014.3
20260503224018 63 48 2.0 8.0 0.00 0.00 0.00 26 1014.4
20260503223516 64 48 2.0 5.0 0.00 0.00 0.00 25 1014.4
20260503223036 64 48 2.0 7.0 0.00 0.00 0.00 25 1014.3
20260503222517 63 48 2.0 7.0 0.00 0.00 0.00 26 1014.4
20260503222020 64 48 2.0 7.0 0.00 0.00 0.00 25 1014.3
20260503221534 63 48 3.0 7.0 0.00 0.00 0.00 26 1014.4
20260503221016 63 48 1.0 6.0 0.00 0.00 0.00 26 1014.4
20260503220519 63 48 3.0 6.0 0.00 0.00 0.00 26 1014.4
20260503220032 63 48 2.0 13.0 0.00 0.00 0.00 26 1014.4
20260503215516 63 48 3.0 13.0 0.00 0.00 0.00 26 1014.5
20260503215016 63 48 6.0 13.0 0.00 0.00 0.00 26 1014.4
20260503214538 63 51 3.0 11.0 0.00 0.00 0.00 25 1014.4
20260503214017 63 51 4.0 8.0 0.00 0.00 0.00 26 1014.4
20260503213519 63 51 3.0 9.0 0.00 0.00 0.00 25 1014.5
20260503213038 63 51 4.0 9.0 0.00 0.00 0.00 25 1014.4
20260503212517 63 51 3.0 8.0 0.00 0.00 0.00 26 1014.6
20260503212021 62 51 2.0 11.0 0.00 0.00 0.00 26 1014.5
20260503211537 62 51 4.0 14.0 0.00 0.00 0.00 26 1014.5
20260503211025 62 51 5.0 14.0 0.00 0.00 0.00 26 1014.6
20260503210516 63 53 3.0 8.0 0.00 0.00 0.00 26 1014.5
20260503210033 63 53 3.0 9.0 0.00 0.00 0.00 26 1014.5
20260503205519 62 53 4.0 11.0 0.00 0.00 0.00 26 1014.4
20260503205019 62 53 5.0 11.0 0.00 0.00 0.00 26 1014.7
20260503204534 62 53 5.0 11.0 0.00 0.00 0.00 26 1014.9
20260503204021 62 53 5.0 11.0 0.00 0.00 0.00 26 1014.8
20260503203523 62 53 5.0 12.0 0.00 0.00 0.00 27 1014.7
20260503203034 62 53 3.0 12.0 0.00 0.00 0.00 27 1014.7
20260503202519 61 53 5.0 12.0 0.00 0.00 0.00 28 1014.7
20260503202019 61 53 3.0 11.0 0.00 0.00 0.00 28 1014.7
20260503201538 61 53 4.0 11.0 0.00 0.00 0.00 27 1015.0
20260503201018 62 53 3.0 10.0 0.00 0.00 0.00 27 1015.1
20260503200518 62 53 4.0 14.0 0.00 0.00 0.00 27 1015.1
20260503200038 61 53 5.0 14.0 0.00 0.00 0.00 28 1015.1
20260503195519 62 53 2.0 10.0 0.00 0.00 0.00 29 1015.1
20260503195016 61 53 4.0 15.0 0.00 0.00 0.00 28 1015.2
20260503194538 61 53 2.0 15.0 0.00 0.00 0.00 29 1015.4
20260503194019 60 53 5.0 12.0 0.00 0.00 0.00 28 1015.4
20260503193523 60 53 4.0 13.0 0.00 0.00 0.00 30 1015.4
20260503193042 60 53 6.0 13.0 0.00 0.00 0.00 30 1015.6
20260503192520 60 52 7.0 12.0 0.00 0.00 0.00 30 1015.7
20260503192022 60 51 4.0 12.0 0.00 0.00 0.00 29 1015.7
20260503191535 60 51 3.0 14.0 0.00 0.00 0.00 30 1015.8
20260503191023 60 51 5.0 14.0 0.00 0.00 0.00 30 1015.9
20260503190519 60 49 4.0 9.0 0.00 0.00 0.00 30 1015.8
20260503190043 60 49 4.0 11.0 0.00 0.00 0.00 30 1015.9
20260503185518 60 49 3.0 11.0 0.00 0.00 0.00 31 1015.9
20260503185019 59 49 5.0 11.0 0.00 0.00 0.00 31 1016.0
20260503184537 59 49 4.0 13.0 0.00 0.00 0.00 31 1015.9
20260503184021 59 49 5.0 13.0 0.00 0.00 0.00 31 1016.0
20260503183517 59 49 5.0 12.0 0.00 0.00 0.00 31 1016.3
20260503183052 59 51 4.0 12.0 0.00 0.00 0.00 32 1016.2
20260503182518 58 51 3.0 12.0 0.00 0.00 0.00 33 1016.2
20260503182020 59 51 7.0 15.0 0.00 0.00 0.00 32 1016.4
20260503181540 58 51 4.0 15.0 0.00 0.00 0.00 32 1016.3
20260503181018 58 53 5.0 11.0 0.00 0.00 0.00 32 1016.4
20260503180518 58 52 5.0 14.0 0.00 0.00 0.00 33 1016.3
20260503180037 57 52 5.0 14.0 0.00 0.00 0.00 33 1016.3
20260503175517 58 52 7.0 14.0 0.00 0.00 0.00 31 1016.4
20260503175018 57 52 3.0 12.0 0.00 0.00 0.00 33 1016.6
20260503174537 57 54 3.0 11.0 0.00 0.00 0.00 34 1016.5
20260503174017 57 53 3.0 11.0 0.00 0.00 0.00 34 1016.6
20260503173517 57 54 2.0 11.0 0.00 0.00 0.00 34 1016.6
20260503173032 56 54 3.0 11.0 0.00 0.00 0.00 34 1016.7
20260503172516 56 53 4.0 10.0 0.00 0.00 0.00 34 1016.7
20260503172017 57 53 4.0 8.0 0.00 0.00 0.00 33 1016.7
20260503171536 56 53 3.0 10.0 0.00 0.00 0.00 34 1016.9
20260503171017 56 53 3.0 11.0 0.00 0.00 0.00 34 1017.0
20260503170515 56 53 4.0 11.0 0.00 0.00 0.00 34 1017.0